• In Belgien
  • Länderverzeichnis
  • Für 7 Tage
  • Wassertemperatur
  • Satellitenkarten
  • Wetterkarte
  • Widgets
  • user-avatar
    Anmelden

    Stündliche Wetter Canberra

    Heute, 14 Dezember, Donnerstag

    Zeit Temperatur Niederschläge Wind Luftdruck Luftfeuchtigkeit
    00:00 +22°C° 0 mm 1 m/S 705 mmHg 38%
    01:00 +21°C° 0 mm 1 m/S 705 mmHg 40%
    02:00 +21°C° 0 mm 1 m/S 704 mmHg 41%
    03:00 +21°C° 0 mm 1 m/S 704 mmHg 42%
    04:00 +21°C° 0 mm 1 m/S 704 mmHg 43%
    05:00 +23°C° 0 mm 2 m/S 704 mmHg 40%
    06:00 +25°C° 0 mm 3 m/S 705 mmHg 38%
    07:00 +27°C° 0 mm 4 m/S 705 mmHg 35%
    08:00 +29°C° 0 mm 5 m/S 705 mmHg 32%
    09:00 +32°C° 0 mm 6 m/S 705 mmHg 29%
    10:00 +34°C° 0 mm 7 m/S 705 mmHg 26%
    11:00 +35°C° 0 mm 7 m/S 705 mmHg 25%
    12:00 +35°C° 0 mm 7 m/S 705 mmHg 23%
    13:00 +37°C° 0 mm 8 m/S 705 mmHg 22%
    14:00 +35°C° 0 mm 7 m/S 704 mmHg 24%
    15:00 +34°C° 0 mm 6 m/S 704 mmHg 26%
    16:00 +33°C° 0 mm 5 m/S 704 mmHg 28%
    17:00 +32°C° 0 mm 4 m/S 704 mmHg 32%
    18:00 +29°C° 0 mm 3 m/S 704 mmHg 36%
    19:00 +27°C° 0 mm 3 m/S 704 mmHg 40%
    20:00 +26°C° 0,1 mm 2 m/S 705 mmHg 44%
    21:00 +25°C° 0,1 mm 2 m/S 705 mmHg 48%
    22:00 +24°C° 0,1 mm 2 m/S 706 mmHg 51%
    23:00 +23°C° 0 mm 1 m/S 706 mmHg 56%

    Morgen, 15 Dezember, Freitag

    Zeit Temperatur Niederschläge Wind Luftdruck Luftfeuchtigkeit
    00:00 +22°C° 0 mm 1 m/S 706 mmHg 62%
    01:00 +21°C° 0 mm 1 m/S 706 mmHg 67%
    02:00 +20°C° 0 mm 1 m/S 706 mmHg 70%
    03:00 +20°C° 0 mm 1 m/S 706 mmHg 74%
    04:00 +20°C° 0 mm 1 m/S 706 mmHg 77%
    05:00 +19°C° 0 mm 2 m/S 706 mmHg 77%
    06:00 +20°C° 0 mm 2 m/S 707 mmHg 76%
    07:00 +20°C° 0 mm 2 m/S 707 mmHg 76%
    08:00 +23°C° 0 mm 2 m/S 707 mmHg 68%
    09:00 +25°C° 0 mm 2 m/S 708 mmHg 61%
    10:00 +27°C° 0 mm 3 m/S 708 mmHg 53%
    11:00 +28°C° 0,1 mm 3 m/S 707 mmHg 48%
    12:00 +30°C° 0,1 mm 3 m/S 707 mmHg 43%
    13:00 +33°C° 0,1 mm 3 m/S 707 mmHg 37%
    14:00 +33°C° 0 mm 3 m/S 707 mmHg 35%
    15:00 +33°C° 0 mm 3 m/S 706 mmHg 34%
    16:00 +33°C° 0 mm 3 m/S 706 mmHg 32%
    17:00 +30°C° 0 mm 3 m/S 706 mmHg 39%
    18:00 +28°C° 0 mm 2 m/S 706 mmHg 45%
    19:00 +26°C° 0 mm 1 m/S 706 mmHg 52%
    20:00 +24°C° 0 mm 1 m/S 706 mmHg 57%
    21:00 +23°C° 0 mm 1 m/S 706 mmHg 62%
    22:00 +22°C° 0 mm 1 m/S 707 mmHg 67%
    23:00 +21°C° 0 mm 1 m/S 707 mmHg 69%

    übermorgen, 16 Dezember, Samstag

    Zeit Temperatur Niederschläge Wind Luftdruck Luftfeuchtigkeit
    00:00 +21°C° 0 mm 1 m/S 707 mmHg 71%
    01:00 +20°C° 0 mm 1 m/S 707 mmHg 72%
    02:00 +20°C° 0 mm 1 m/S 707 mmHg 72%
    03:00 +20°C° 0 mm 1 m/S 707 mmHg 71%
    04:00 +20°C° 0 mm 1 m/S 707 mmHg 71%
    05:00 +22°C° 0 mm 1 m/S 707 mmHg 65%
    06:00 +24°C° 0 mm 1 m/S 708 mmHg 58%
    07:00 +23°C° 0 mm 0 m/S 709 mmHg 52%
    08:00 +28°C° 0 mm 1 m/S 709 mmHg 45%
    09:00 +30°C° 0 mm 2 m/S 709 mmHg 38%
    10:00 +33°C° 0 mm 3 m/S 709 mmHg 31%
    11:00 +34°C° 0 mm 3 m/S 709 mmHg 30%
    12:00 +34°C° 0 mm 4 m/S 709 mmHg 28%
    13:00 +35°C° 0 mm 4 m/S 708 mmHg 26%
    14:00 +35°C° 0 mm 4 m/S 708 mmHg 26%
    15:00 +35°C° 0 mm 4 m/S 708 mmHg 26%
    16:00 +35°C° 0 mm 4 m/S 708 mmHg 26%
    17:00 +31°C° 0 mm 3 m/S 708 mmHg 34%
    18:00 +29°C° 0 mm 2 m/S 708 mmHg 42%
    19:00 +27°C° 0 mm 1 m/S 708 mmHg 49%
    20:00 +25°C° 0 mm 2 m/S 708 mmHg 59%
    21:00 +23°C° 0 mm 2 m/S 709 mmHg 68%
    22:00 +21°C° 0 mm 3 m/S 709 mmHg 77%
    23:00 +20°C° 0 mm 3 m/S 709 mmHg 81%

    17 Dezember, Sonntag

    Zeit Temperatur Niederschläge Wind Luftdruck Luftfeuchtigkeit
    00:00 +20°C° 0 mm 3 m/S 708 mmHg 85%
    01:00 +19°C° 0 mm 3 m/S 708 mmHg 89%
    02:00 +19°C° 0 mm 2 m/S 708 mmHg 89%
    03:00 +19°C° 0 mm 2 m/S 708 mmHg 89%
    04:00 +19°C° 0 mm 2 m/S 708 mmHg 90%
    05:00 +20°C° 0 mm 2 m/S 709 mmHg 85%
    06:00 +21°C° 0 mm 2 m/S 709 mmHg 79%
    07:00 +23°C° 0 mm 2 m/S 709 mmHg 74%
    08:00 +26°C° 0 mm 2 m/S 710 mmHg 65%
    09:00 +28°C° 0 mm 2 m/S 710 mmHg 55%
    10:00 +31°C° 0 mm 2 m/S 710 mmHg 45%
    11:00 +32°C° 0,2 mm 2 m/S 710 mmHg 42%
    12:00 +34°C° 0,2 mm 2 m/S 709 mmHg 39%
    13:00 +35°C° 0,2 mm 2 m/S 709 mmHg 36%
    14:00 +34°C° 0,2 mm 2 m/S 708 mmHg 38%
    15:00 +34°C° 0,2 mm 2 m/S 708 mmHg 40%
    16:00 +32°C° 0,2 mm 2 m/S 708 mmHg 42%
    17:00 +29°C° 0,8 mm 3 m/S 708 mmHg 57%
    18:00 +27°C° 0,8 mm 4 m/S 708 mmHg 71%
    19:00 +23°C° 0,8 mm 4 m/S 708 mmHg 85%
    20:00 +22°C° 1,9 mm 4 m/S 708 mmHg 87%
    21:00 +21°C° 1,9 mm 3 m/S 709 mmHg 90%
    22:00 +20°C° 1,9 mm 3 m/S 709 mmHg 93%
    23:00 +20°C° 0,6 mm 3 m/S 709 mmHg 94%

    18 Dezember, Montag

    Zeit Temperatur Niederschläge Wind Luftdruck Luftfeuchtigkeit
    00:00 +20°C° 0,6 mm 2 m/S 708 mmHg 95%
    01:00 +19°C° 0,6 mm 2 m/S 708 mmHg 95%
    02:00 +20°C° 0 mm 1 m/S 708 mmHg 96%
    03:00 +20°C° 0 mm 1 m/S 707 mmHg 96%
    04:00 +19°C° 0 mm 1 m/S 707 mmHg 96%
    05:00 +21°C° 0,2 mm 1 m/S 707 mmHg 92%
    06:00 +22°C° 0,2 mm 1 m/S 708 mmHg 87%
    07:00 +23°C° 0,2 mm 1 m/S 708 mmHg 83%
    08:00 +26°C° 0 mm 2 m/S 708 mmHg 70%
    09:00 +29°C° 0 mm 2 m/S 708 mmHg 58%
    10:00 +31°C° 0 mm 3 m/S 709 mmHg 45%
    11:00 +34°C° 0 mm 3 m/S 708 mmHg 41%
    12:00 +35°C° 0 mm 3 m/S 708 mmHg 38%
    13:00 +36°C° 0 mm 3 m/S 707 mmHg 34%
    14:00 +36°C° 0 mm 3 m/S 707 mmHg 34%
    15:00 +36°C° 0 mm 3 m/S 706 mmHg 33%
    16:00 +36°C° 0 mm 2 m/S 706 mmHg 33%
    17:00 +34°C° 0,1 mm 2 m/S 706 mmHg 40%
    18:00 +31°C° 0,1 mm 2 m/S 706 mmHg 48%
    19:00 +29°C° 0,1 mm 2 m/S 705 mmHg 55%
    20:00 +28°C° 0 mm 2 m/S 705 mmHg 63%
    21:00 +26°C° 0 mm 2 m/S 705 mmHg 71%
    22:00 +25°C° 0 mm 2 m/S 705 mmHg 79%
    23:00 +24°C° 0 mm 1 m/S 705 mmHg 82%

    19 Dezember, Dienstag

    Zeit Temperatur Niederschläge Wind Luftdruck Luftfeuchtigkeit
    00:00 +24°C° 0 mm 1 m/S 704 mmHg 86%
    01:00 +23°C° 0 mm 1 m/S 704 mmHg 89%
    02:00 +23°C° 0 mm 1 m/S 703 mmHg 88%
    03:00 +23°C° 0 mm 1 m/S 703 mmHg 87%
    04:00 +23°C° 0 mm 1 m/S 703 mmHg 86%
    05:00 +25°C° 0 mm 2 m/S 703 mmHg 74%
    06:00 +26°C° 0 mm 3 m/S 703 mmHg 61%
    07:00 +28°C° 0 mm 4 m/S 703 mmHg 49%
    08:00 +30°C° 0 mm 5 m/S 703 mmHg 42%
    09:00 +34°C° 0 mm 7 m/S 703 mmHg 34%
    10:00 +37°C° 0 mm 8 m/S 703 mmHg 27%
    11:00 +38°C° 0 mm 8 m/S 703 mmHg 25%
    12:00 +39°C° 0 mm 8 m/S 703 mmHg 23%
    13:00 +40°C° 0 mm 8 m/S 702 mmHg 22%
    14:00 +38°C° 0 mm 7 m/S 702 mmHg 25%
    15:00 +36°C° 0 mm 7 m/S 702 mmHg 28%
    16:00 +35°C° 0 mm 6 m/S 701 mmHg 32%
    17:00 +33°C° 0,1 mm 5 m/S 701 mmHg 39%
    18:00 +30°C° 0,1 mm 4 m/S 702 mmHg 46%
    19:00 +28°C° 0,1 mm 2 m/S 702 mmHg 52%
    20:00 +27°C° 0 mm 3 m/S 702 mmHg 51%
    21:00 +27°C° 0 mm 3 m/S 702 mmHg 49%
    22:00 +27°C° 0 mm 3 m/S 702 mmHg 47%
    23:00 +27°C° 0 mm 4 m/S 702 mmHg 48%
    Mehr zeigen